Back to catalog

ONEWEB-0302

AliveCommunicationsPO
NORAD 49091·PAYLOAD·🇬🇧 United Kingdom

Launched Aug 21, 2021 from Baikonur Cosmodrome

Loading…

Next Passes (next 24 hours)

TLE

FreshSource: CelesTrak SupGP

Epoch: Sep 14, 2026, 23:10 UTC

1 49091C 21075S   26257.96581436  .00000695  00000+0  19330-2 0  2576
2 49091  87.8988 332.8427 0001558 101.0244 294.6019 13.12444640    14

Track ONEWEB-0302 in real time with AllMySat

Download on the App Store